AEST,Max TemperatureF,Mean TemperatureF,Min TemperatureF,Max Dew PointF,MeanDew PointF,Min DewpointF,Max Humidity, Mean Humidity, Min Humidity, Max Sea Level PressureIn, Mean Sea Level PressureIn, Min Sea Level PressureIn, Max VisibilityMiles, Mean VisibilityMiles, Min VisibilityMiles, Max Wind SpeedMPH, Mean Wind SpeedMPH, Max Gust SpeedMPH,PrecipitationIn, CloudCover, Events, WindDirDegrees
2012-12-1,83,80,76,65,63,61,65,57,43,30.04,29.99,29.94,,,,25,18,,0.00,,,107
2012-12-2,82,78,75,66,64,63,69,60,43,30.01,29.93,29.86,,,,21,14,,0.00,,,90
2012-12-3,86,80,73,66,64,59,73,59,36,29.92,29.87,29.80,,,,13,7,,0.00,,,350
2012-12-4,84,80,76,70,66,63,74,63,46,29.86,29.78,29.68,,,,33,17,,0.00,,,330
2012-12-5,84,81,78,75,70,66,89,70,48,29.86,29.78,29.71,,,,33,25,40,0.00,,,318
2012-12-6,84,80,76,75,72,64,89,75,57,29.98,29.93,29.83,,,,18,12,,0.00,,,125
2012-12-7,86,82,77,73,71,59,83,71,38,30.06,30.01,29.95,,,,25,16,21,0.01,,,104
2012-12-8,84,81,77,70,67,54,74,63,42,30.06,30.00,29.95,,,,25,20,,0.00,,,102
2012-12-9,84,80,76,70,66,64,74,63,49,30.01,29.95,29.92,,,,25,21,,0.00,,,115
2012-12-10,84,80,76,70,66,63,74,64,48,29.99,29.95,29.89,,,,26,21,,0.00,,,118
2012-12-11,84,80,76,70,66,63,78,65,47,29.98,29.95,29.89,,,,29,23,43,0.01,,,118
2012-12-12,84,79,74,70,67,63,78,66,47,29.99,29.94,29.89,,,,32,26,33,0.12,,,130
2012-12-13,83,77,71,72,67,64,89,69,49,29.98,29.95,29.89,,,,32,28,45,0.00,,,120
2012-12-14,84,79,74,68,64,59,78,61,36,29.98,29.91,29.83,,,,24,19,,0.00,,,113
2012-12-15,84,78,73,68,64,61,78,61,41,29.92,29.85,29.77,,,,17,9,,0.00,,,76
2012-12-16,86,80,74,70,67,64,74,64,43,29.86,29.80,29.74,,,,14,8,,0.00,,,347
2012-12-17,87,82,76,75,71,66,89,71,53,29.86,29.79,29.71,,,,25,14,,0.00,,,333
2012-12-18,87,82,77,74,73,72,83,75,54,29.83,29.77,29.71,,,,21,14,18,0.00,,,333
2012-12-19,84,80,77,73,71,70,83,73,60,29.86,29.82,29.77,,,,20,10,,0.00,,,64
2012-12-20,84,80,76,72,70,67,78,70,53,29.89,29.84,29.77,,,,20,12,,0.00,,,82
2012-12-21,86,81,76,72,70,68,78,70,51,29.87,29.82,29.77,,,,22,12,,0.00,,,106
2012-12-22,84,80,77,75,71,68,89,72,56,29.83,29.80,29.77,,,,26,19,,0.08,,,108
2012-12-23,80,76,72,77,74,72,100,91,78,29.89,29.84,29.79,,,,29,21,,1.38,,,120
2012-12-24,79,76,72,75,72,66,100,86,65,29.92,29.88,29.83,,,,31,21,31,0.04,,,111
2012-12-25,82,78,73,74,71,67,94,78,59,29.92,29.85,29.80,,,,23,14,26,0.08,,,111
2012-12-26,84,79,74,73,68,64,89,68,49,29.83,29.79,29.74,,,,18,6,,0.00,,,83
2012-12-27,86,80,75,73,69,66,83,69,50,29.86,29.83,29.77,,,,20,10,,0.00,,,84
2012-12-28,86,82,77,75,72,70,83,74,56,29.89,29.84,29.77,,,,18,15,,0.04,,,97
2012-12-29,82,78,74,74,72,68,89,77,61,29.86,29.83,29.77,,,,22,14,,0.16,,,123
2012-12-30,84,78,73,77,73,64,100,80,62,29.89,29.81,29.77,,,,45,24,55,3.82,,,122
2012-12-31,82,77,72,77,74,66,100,88,69,29.92,29.84,29.80,,,,40,28,41,0.59,,,125